TimeEST,TemperatureF,Dew PointF,Humidity,Sea Level PressureIn,VisibilityMPH,Wind Direction,Wind SpeedMPH,Gust SpeedMPH,PrecipitationIn,Events,Conditions,WindDirDegrees,DateUTC
12:58 AM,50.0,46.4,87,30.03,10.0,Calm,Calm,-,N/A,,Clear,0,2013-03-03 05:58:00
1:58 AM,48.2,46.4,93,30.01,10.0,Calm,Calm,-,N/A,,Scattered Clouds,360,2013-03-03 06:58:00
2:58 AM,50.0,42.8,76,29.99,10.0,NNW,5.8,-,N/A,,Scattered Clouds,330,2013-03-03 07:58:00
3:58 AM,51.8,44.6,76,29.99,10.0,NNW,9.2,-,N/A,,Mostly Cloudy,340,2013-03-03 08:58:00
4:22 AM,51.8,44.6,76,30.00,10.0,NNW,9.2,-,N/A,,Light Drizzle,330,2013-03-03 09:22:00
4:58 AM,50.0,46.4,87,30.01,10.0,NNW,11.5,-,N/A,Rain,Light Rain,340,2013-03-03 09:58:00
5:14 AM,50.0,46.4,87,30.00,10.0,NNW,9.2,-,N/A,,Scattered Clouds,340,2013-03-03 10:14:00
5:27 AM,50.0,46.4,87,30.01,10.0,NNW,9.2,-,N/A,Rain,Light Rain,330,2013-03-03 10:27:00
5:58 AM,50.0,46.4,87,30.02,10.0,NNW,6.9,-,N/A,Rain,Light Rain,330,2013-03-03 10:58:00
6:10 AM,50.0,46.4,87,30.01,10.0,NNW,6.9,-,N/A,,Overcast,330,2013-03-03 11:10:00
6:22 AM,50.0,46.4,87,30.01,10.0,NNW,10.4,-,N/A,Rain,Light Rain,340,2013-03-03 11:22:00
6:52 AM,50.0,46.4,87,30.02,10.0,NNW,8.1,-,N/A,,Mostly Cloudy,340,2013-03-03 11:52:00
6:58 AM,50.0,46.4,87,30.02,10.0,NNW,8.1,-,N/A,,Mostly Cloudy,330,2013-03-03 11:58:00
7:58 AM,51.8,46.4,82,30.04,10.0,NNW,6.9,-,N/A,,Partly Cloudy,340,2013-03-03 12:58:00
8:58 AM,55.4,44.6,67,30.05,10.0,North,4.6,-,N/A,,Partly Cloudy,350,2013-03-03 13:58:00
9:54 AM,59.0,44.6,59,30.05,10.0,NNW,11.5,-,N/A,,Drizzle,340,2013-03-03 14:54:00
9:58 AM,59.0,44.6,59,30.06,10.0,NW,12.7,-,N/A,,Drizzle,320,2013-03-03 14:58:00
10:03 AM,59.0,42.8,55,30.05,10.0,NNW,11.5,-,N/A,,Clear,330,2013-03-03 15:03:00
10:06 AM,59.0,44.6,59,30.05,10.0,NW,13.8,-,N/A,,Light Drizzle,320,2013-03-03 15:06:00
10:15 AM,59.0,44.6,59,30.05,10.0,NNW,9.2,-,N/A,,Clear,340,2013-03-03 15:15:00
10:58 AM,60.8,42.8,52,30.06,10.0,North,13.8,19.6,N/A,,Clear,350,2013-03-03 15:58:00
11:58 AM,62.6,42.8,48,30.05,10.0,NNW,17.3,-,N/A,,Scattered Clouds,330,2013-03-03 16:58:00
12:58 PM,62.6,42.8,48,30.04,10.0,NNW,12.7,-,N/A,,Partly Cloudy,330,2013-03-03 17:58:00
1:19 PM,62.6,42.8,48,30.03,10.0,WNW,12.7,-,N/A,,Scattered Clouds,290,2013-03-03 18:19:00
1:58 PM,64.4,44.6,49,30.03,10.0,West,11.5,21.9,N/A,,Clear,280,2013-03-03 18:58:00
2:32 PM,62.6,44.6,52,30.02,10.0,West,17.3,26.5,N/A,,Partly Cloudy,280,2013-03-03 19:32:00
2:58 PM,64.4,44.6,49,30.03,10.0,West,15.0,19.6,N/A,,Partly Cloudy,280,2013-03-03 19:58:00
3:43 PM,64.4,42.8,45,30.02,10.0,NW,15.0,26.5,N/A,,Partly Cloudy,310,2013-03-03 20:43:00
3:58 PM,66.2,42.8,43,30.03,10.0,West,17.3,27.6,N/A,,Partly Cloudy,280,2013-03-03 20:58:00
4:58 PM,62.6,42.8,48,30.05,10.0,WNW,16.1,23.0,N/A,,Clear,290,2013-03-03 21:58:00
5:58 PM,59.0,41.0,51,30.07,10.0,WNW,17.3,-,N/A,,Clear,290,2013-03-03 22:58:00
6:58 PM,57.2,42.8,59,30.10,10.0,WNW,12.7,-,N/A,,Clear,290,2013-03-03 23:58:00
7:58 PM,55.4,42.8,63,30.10,10.0,WNW,16.1,26.5,N/A,,Clear,300,2013-03-04 00:58:00
8:58 PM,53.6,42.8,67,30.14,10.0,West,8.1,-,N/A,,Clear,270,2013-03-04 01:58:00
9:58 PM,53.6,42.8,67,-9999,10.0,West,8.1,-,N/A,,Clear,270,2013-03-04 02:58:00
10:58 PM,55.4,42.8,63,30.14,7.0,West,5.8,-,N/A,,Clear,270,2013-03-04 03:58:00
11:58 PM,51.8,41.0,67,30.14,7.0,West,5.8,-,N/A,,Clear,280,2013-03-04 04:58:00